Weather reports worldwide

Advertisment
Newton Rigg, United Kingdom (99152): temperature & dewpoint: 12.08.2017 00:00:00 - 18.08.2017 00:00:00 (BST)Newton Rigg, United Kingdom (99152): temperature -20cm & temperature -100cm: 12.08.2017 00:00:00 - 18.08.2017 00:00:00 (BST)Newton Rigg, United Kingdom (99152): visibility: 12.08.2017 00:00:00 - 18.08.2017 00:00:00 (BST)Newton Rigg, United Kingdom (99152): precipitation: 12.08.2017 00:00:00 - 18.08.2017 00:00:00 (BST)
Date & Time tt [°C] td [°C] tt -20cm [°C] tt -100cm [°C] vv [km] rr [mm]
18.08.2017 00:00:00 - - - - - 0,0
17.08.2017 23:00:00 13,8 12,3 - - - 1,4
17.08.2017 22:00:00 14,1 11,7 - - - 0,0
17.08.2017 21:00:00 15,0 10,8 - - - 0,0
17.08.2017 20:00:00 15,3 11,5 - - - 0,0
17.08.2017 19:00:00 15,8 12,3 - - - 0,0
17.08.2017 18:00:00 15,8 12,9 - - - 0,0
17.08.2017 17:00:00 16,9 11,4 - - - 0,0
17.08.2017 16:00:00 18,0 11,6 - - - 0,0
17.08.2017 15:00:00 19,2 11,8 - - - 0,0
17.08.2017 14:00:00 19,4 12,1 - - - 0,0
17.08.2017 13:00:00 19,3 12,6 - - - 0,0
17.08.2017 12:00:00 18,8 11,9 - - - 0,0
17.08.2017 11:00:00 18,2 11,3 - - - 0,0
17.08.2017 10:00:00 17,0 12,3 15,7 14,7 10 0,0
17.08.2017 09:00:00 15,7 12,5 - - - 0,0
17.08.2017 08:00:00 14,1 13,8 - - - 0,0
17.08.2017 07:00:00 12,3 12,0 - - - 0,0
17.08.2017 06:00:00 13,1 12,4 - - - 0,0
17.08.2017 05:00:00 13,8 13,1 - - - 0,4
17.08.2017 04:00:00 13,6 13,0 - - - 0,2
17.08.2017 03:00:00 13,7 12,7 - - - 1,4
17.08.2017 02:00:00 14,1 13,0 - - - 0,2
17.08.2017 01:00:00 14,5 13,4 - - - 0,0
17.08.2017 00:00:00 14,9 13,2 - - - 0,0
16.08.2017 23:00:00 15,0 13,1 - - - 0,0
16.08.2017 22:00:00 14,2 13,3 - - - 0,0
16.08.2017 21:00:00 14,7 13,0 - - - 0,0
16.08.2017 20:00:00 14,5 12,6 - - - 0,0
16.08.2017 19:00:00 15,7 12,1 - - - 0,0
16.08.2017 18:00:00 15,9 11,8 - - - 0,0
16.08.2017 17:00:00 15,9 12,6 - - - 0,2
16.08.2017 16:00:00 15,8 11,6 - - - 0,0
16.08.2017 15:00:00 16,9 10,8 - - - 0,0
16.08.2017 14:00:00 16,9 10,2 - - - 0,0
16.08.2017 13:00:00 16,9 10,6 - - - 0,0
16.08.2017 12:00:00 15,3 10,2 - - - 0,0
16.08.2017 11:00:00 15,2 11,3 - - - 0,0
16.08.2017 10:00:00 14,1 10,0 15,7 14,7 11 0,0
16.08.2017 09:00:00 13,3 10,4 - - - 0,0
16.08.2017 08:00:00 12,7 10,8 - - - 0,0
16.08.2017 07:00:00 12,3 10,6 - - - 0,0
16.08.2017 06:00:00 12,2 10,7 - - - 0,0
16.08.2017 05:00:00 12,3 11,3 - - - 0,0
16.08.2017 04:00:00 10,5 9,9 - - - 0,0
16.08.2017 03:00:00 9,7 8,7 - - - 0,0
16.08.2017 02:00:00 10,9 9,9 - - - 0,0
16.08.2017 01:00:00 10,9 10,2 - - - 0,0
16.08.2017 00:00:00 10,5 9,9 - - - 0,0
15.08.2017 23:00:00 11,0 9,4 - - - 0,0
15.08.2017 22:00:00 12,0 10,3 - - - 0,0
15.08.2017 21:00:00 12,7 9,9 - - - 0,0
15.08.2017 20:00:00 14,1 10,1 - - - 0,0
15.08.2017 19:00:00 14,9 10,0 - - - 0,0
15.08.2017 18:00:00 14,8 9,5 - - - 0,0
15.08.2017 17:00:00 15,8 9,8 - - - 0,0
15.08.2017 16:00:00 15,9 10,1 - - - 0,0
15.08.2017 15:00:00 16,4 10,5 - - - 0,0
15.08.2017 14:00:00 15,8 10,8 - - - 0,4
15.08.2017 13:00:00 14,6 10,4 - - - 0,0
15.08.2017 12:00:00 15,1 11,4 - - - 0,0
15.08.2017 11:00:00 13,2 11,5 - - - 0,2
15.08.2017 10:00:00 14,3 11,0 15,7 14,7 10 0,0
15.08.2017 09:00:00 14,5 11,7 - - - 0,0
15.08.2017 08:00:00 11,5 11,2 - - - 0,0
15.08.2017 07:00:00 10,9 10,6 - - - 0,0
15.08.2017 06:00:00 11,6 10,4 - - - 0,0
15.08.2017 05:00:00 12,8 11,5 - - - 0,0
15.08.2017 04:00:00 12,8 12,3 - - - 0,2
15.08.2017 03:00:00 13,5 12,2 - - - 5,6
15.08.2017 02:00:00 13,7 13,4 - - - 1,4
15.08.2017 01:00:00 13,8 13,2 - - - 2,4
15.08.2017 00:00:00 14,0 13,6 - - - 0,4
14.08.2017 23:00:00 14,1 13,7 - - - 0,8
14.08.2017 22:00:00 14,2 13,5 - - 10 1,6
14.08.2017 21:00:00 14,3 13,4 - - - 0,6
14.08.2017 20:00:00 15,4 13,1 - - - 0,0
14.08.2017 19:00:00 16,7 13,6 - - - 0,0
14.08.2017 18:00:00 16,6 13,6 - - - 0,0
14.08.2017 17:00:00 15,7 13,3 - - - 0,0
14.08.2017 16:00:00 15,7 12,8 - - - 0,0
14.08.2017 15:00:00 15,4 12,6 - - - 0,0
14.08.2017 14:00:00 15,0 12,5 - - - 0,0
14.08.2017 13:00:00 14,3 12,0 - - - 0,0
14.08.2017 12:00:00 14,4 11,9 - - - 0,0
14.08.2017 11:00:00 13,4 11,4 - - - 0,0
14.08.2017 10:00:00 12,7 11,3 15,7 14,7 80 0,0
14.08.2017 09:00:00 12,2 11,4 - - - 1,0
14.08.2017 08:00:00 11,6 10,7 - - - 1,0
14.08.2017 07:00:00 11,6 10,2 - - - 0,8
14.08.2017 06:00:00 11,8 9,6 - - - 0,4
14.08.2017 05:00:00 11,3 9,0 - - - 0,2
14.08.2017 04:00:00 11,1 8,3 - - - 0,0
14.08.2017 03:00:00 11,4 7,5 - - - 0,0
14.08.2017 02:00:00 10,7 7,1 - - - 0,0
14.08.2017 01:00:00 11,7 7,3 - - - 0,0
14.08.2017 00:00:00 11,7 7,4 - - - 0,0
13.08.2017 23:00:00 12,0 8,0 - - - 0,0
13.08.2017 22:00:00 11,9 8,2 - - - 0,0
13.08.2017 21:00:00 12,9 9,4 - - - 0,0
13.08.2017 20:00:00 14,0 8,5 - - - 0,0
13.08.2017 19:00:00 15,6 6,3 - - - 0,0
13.08.2017 18:00:00 16,4 8,2 - - - 0,0
13.08.2017 17:00:00 16,9 7,9 - - - 0,0
13.08.2017 16:00:00 15,5 7,4 - - - 0,0
13.08.2017 15:00:00 15,6 7,3 - - - 0,0
13.08.2017 14:00:00 15,3 7,8 - - - 0,0
13.08.2017 13:00:00 15,4 6,7 - - - 0,0
13.08.2017 12:00:00 14,5 6,5 - - - 0,0
13.08.2017 11:00:00 15,2 7,7 - - - 0,0
13.08.2017 10:00:00 13,2 7,3 15,7 14,7 - 0,0
13.08.2017 09:00:00 12,3 9,1 - - - 0,0
13.08.2017 08:00:00 9,2 8,4 - - - 0,0
13.08.2017 07:00:00 4,9 4,6 - - - 0,0
13.08.2017 06:00:00 5,7 5,5 - - - 0,0
13.08.2017 05:00:00 5,3 4,6 - - - 0,0
13.08.2017 04:00:00 6,5 6,0 - - - 0,0
13.08.2017 03:00:00 7,4 6,5 - - - 0,0
13.08.2017 02:00:00 8,6 6,4 - - - 0,0
13.08.2017 01:00:00 9,9 7,2 - - - 0,0
13.08.2017 00:00:00 10,4 8,1 - - - 0,0
12.08.2017 23:00:00 11,1 6,9 - - - 0,0
12.08.2017 22:00:00 12,0 7,8 - - - 0,0
12.08.2017 21:00:00 12,9 8,7 - - - 0,0
12.08.2017 20:00:00 13,6 8,9 - - - 0,0
12.08.2017 19:00:00 14,6 8,1 - - - 0,0
12.08.2017 18:00:00 15,5 8,9 - - - 0,0
12.08.2017 17:00:00 14,4 8,8 - - - 0,0
12.08.2017 16:00:00 16,0 8,3 - - - 0,0
12.08.2017 15:00:00 16,6 11,7 - - - 0,0
12.08.2017 14:00:00 15,2 11,3 - - - 0,0
12.08.2017 13:00:00 15,3 12,4 - - - 0,0
12.08.2017 12:00:00 14,7 13,5 - - - 0,8
12.08.2017 11:00:00 13,5 12,7 - - - 0,2
12.08.2017 10:00:00 13,2 12,4 15,7 14,7 1,1 0,2
12.08.2017 09:00:00 12,6 12,1 - - - 0,8
12.08.2017 08:00:00 12,1 11,6 - - - 1,4
12.08.2017 07:00:00 12,3 10,9 - - - 0,0
12.08.2017 06:00:00 12,4 10,7 - - - 0,0
12.08.2017 05:00:00 12,5 10,6 - - - 0,0
12.08.2017 04:00:00 12,6 10,5 - - - 0,0
12.08.2017 03:00:00 13,0 10,6 - - - 0,0
12.08.2017 02:00:00 13,2 11,4 - - - 0,0
12.08.2017 01:00:00 13,8 11,6 - - - 0,0
12.08.2017 00:00:00 14,5 12,0 - - - 0,0

tt = temperature
td = dewpoint
tt -20cm = temperature -20cm
tt -100cm = temperature -100cm
vv = visibility
rr = precipitation

Next stations